KG4QXF Weather Reports


Display with metric or nautical units.
time (UTC)temp
F
wind
direction
speed
MPH
gust
MPH
rain 1hr
in
rain 24hr
in
rain mn
in
humidity
%
barometer
mb
20260906115542 75 232 0.0 0.0 0.00 0.00 0.00 91 1013.1
20260906115038 75 232 0.0 0.0 0.00 0.00 0.00 91 1013.0
20260906114532 74 232 0.0 0.0 0.00 0.00 0.00 91 1013.0
20260906114028 74 232 0.0 0.0 0.00 0.00 0.00 91 1012.8
20260906113526 74 232 0.0 0.0 0.00 0.00 0.00 91 1013.1
20260906113022 74 232 0.0 0.0 0.00 0.00 0.00 91 1012.9
20260906112516 74 233 0.0 0.0 0.00 0.00 0.00 91 1012.8
20260906112013 74 233 0.0 0.0 0.00 0.00 0.00 91 1012.8
20260906111507 74 231 0.0 0.0 0.00 0.00 0.00 92 1012.6
20260906111002 74 231 0.0 0.0 0.00 0.00 0.00 93 1012.8
20260906110457 74 232 0.0 0.0 0.00 0.00 0.00 93 1012.8
20260906105955 74 219 0.0 0.0 0.00 0.00 0.00 93 1012.7
20260906105452 74 219 0.0 0.0 0.00 0.00 0.00 93 1012.5
20260906104947 74 219 0.0 0.0 0.00 0.00 0.00 94 1012.5
20260906104446 74 219 0.0 0.0 0.00 0.00 0.00 94 1012.7
20260906103945 74 219 0.0 0.0 0.00 0.00 0.00 94 1012.5
20260906103444 74 220 0.0 0.0 0.00 0.00 0.00 95 1012.2
20260906102939 74 220 0.0 0.0 0.00 0.00 0.00 95 1012.6
20260906102438 74 221 0.0 0.0 0.00 0.00 0.00 95 1012.5
20260906101933 74 222 0.0 0.0 0.00 0.00 0.00 95 1012.2
20260906101429 74 222 0.0 0.0 0.00 0.00 0.00 95 1012.3
20260906100924 74 222 0.0 0.0 0.00 0.00 0.00 95 1012.2
20260906100423 75 222 0.0 0.0 0.00 0.00 0.00 95 1012.1
20260906095918 75 223 0.0 0.0 0.00 0.00 0.00 95 1012.0
20260906095414 74 230 0.0 0.0 0.00 0.00 0.00 96 1011.9
20260906094913 74 231 0.0 0.0 0.00 0.00 0.00 96 1012.1
20260906094408 74 231 0.0 0.0 0.00 0.00 0.00 95 1011.9
20260906093905 74 231 0.0 0.0 0.00 0.00 0.00 95 1011.9
20260906093400 74 231 0.0 0.0 0.00 0.00 0.00 95 1011.7
20260906092855 75 231 0.0 0.0 0.00 0.00 0.00 95 1011.9
20260906092349 75 231 0.0 0.0 0.00 0.00 0.00 95 1011.7
20260906091845 75 231 0.0 0.0 0.00 0.00 0.00 95 1011.9
20260906091341 75 231 0.0 0.0 0.00 0.00 0.00 95 1011.6
20260906090837 75 231 0.0 0.0 0.00 0.00 0.00 95 1011.7
20260906090336 75 231 0.0 0.0 0.00 0.00 0.00 95 1011.6
20260906085831 75 231 0.0 0.0 0.00 0.00 0.00 95 1011.8
20260906085329 76 231 0.0 0.0 0.00 0.00 0.00 95 1011.6
20260906084824 76 231 0.0 0.0 0.00 0.00 0.00 95 1011.5
20260906084324 76 232 0.0 0.0 0.00 0.00 0.00 94 1011.8
20260906083819 76 232 0.0 0.0 0.00 0.00 0.00 94 1011.5
20260906083314 76 232 0.0 0.0 0.00 0.00 0.00 94 1011.7
20260906082809 76 232 0.0 0.0 0.00 0.00 0.00 94 1011.6
20260906082306 76 232 0.0 0.0 0.00 0.00 0.00 94 1011.8
20260906081759 76 233 0.0 0.0 0.00 0.00 0.00 93 1011.7
20260906081256 76 234 0.0 0.0 0.00 0.00 0.00 93 1011.9
20260906080752 77 234 0.0 0.0 0.00 0.00 0.00 93 1011.8
20260906080248 77 238 0.0 0.0 0.00 0.00 0.00 93 1011.7
20260906075747 77 238 0.0 0.0 0.00 0.00 0.00 93 1012.0
20260906075241 77 229 0.0 0.0 0.00 0.00 0.00 92 1012.0
20260906074737 77 209 0.0 0.0 0.00 0.00 0.00 92 1011.8
20260906074236 77 210 0.0 0.0 0.00 0.00 0.00 92 1011.7
20260906073731 77 210 0.0 0.0 0.00 0.00 0.00 91 1011.8
20260906073231 77 215 0.0 0.0 0.00 0.00 0.00 91 1011.8
20260906072726 77 215 0.0 0.0 0.00 0.00 0.00 91 1011.5
20260906072222 77 216 0.0 0.0 0.00 0.00 0.00 90 1011.8
20260906071718 77 216 0.0 0.0 0.00 0.00 0.00 90 1011.9
20260906071218 77 217 0.0 0.0 0.00 0.00 0.00 90 1011.9
20260906070715 77 217 0.0 0.0 0.00 0.00 0.00 90 1012.1
20260906070210 78 217 0.0 0.0 0.00 0.00 0.00 91 1012.2
20260906065709 78 217 0.0 0.0 0.00 0.00 0.00 91 1012.3
20260906065205 78 217 0.0 0.0 0.00 0.00 0.00 91 1012.5
20260906064701 78 217 0.0 0.0 0.00 0.00 0.00 91 1012.2
20260906064201 78 217 0.0 0.0 0.00 0.00 0.00 90 1012.3
20260906063656 78 217 0.0 0.0 0.00 0.00 0.00 91 1012.4
20260906063152 78 208 0.0 0.0 0.00 0.00 0.00 92 1012.3
20260906062648 78 211 0.0 0.0 0.00 0.00 0.00 92 1012.5
20260906062146 78 211 0.0 0.0 0.00 0.00 0.00 93 1012.5
20260906061642 79 213 0.0 0.0 0.00 0.00 0.00 94 1012.5
20260906061142 79 213 0.0 0.0 0.00 0.00 0.00 94 1012.6
20260906060639 79 212 0.0 0.0 0.00 0.00 0.00 95 1012.7
20260906060136 79 212 0.0 0.0 0.00 0.00 0.00 95 1012.4
20260906055631 80 212 0.0 0.0 0.00 0.00 0.00 95 1012.4
20260906055126 80 212 0.0 0.0 0.00 0.00 0.00 95 1012.4
20260906054621 80 212 0.0 0.0 0.00 0.00 0.00 95 1012.6
20260906054117 80 212 0.0 0.0 0.00 0.00 0.00 95 1012.8
20260906053613 81 212 0.0 0.0 0.00 0.00 0.00 95 1012.7
20260906053108 81 212 0.0 0.0 0.00 0.00 0.00 95 1012.9
20260906052604 81 212 0.0 0.0 0.00 0.00 0.00 95 1012.7
20260906052101 81 212 0.0 0.0 0.00 0.00 0.00 94 1012.6
20260906051556 81 212 0.0 0.0 0.00 0.00 0.00 94 1012.8
20260906051051 82 211 0.0 0.0 0.00 0.00 0.00 94 1012.7
20260906050546 82 216 0.0 0.0 0.00 0.00 0.00 94 1012.7
20260906050041 82 216 0.0 0.0 0.00 0.00 0.00 94 1012.8
20260906045539 82 217 0.0 0.0 0.00 0.00 0.00 93 1012.5
20260906045035 82 217 0.0 0.0 0.00 0.00 0.00 93 1012.9
20260906044531 82 217 0.0 0.0 0.00 0.00 0.00 93 1013.1
20260906044026 82 217 0.0 0.0 0.00 0.00 0.00 93 1012.9
20260906043521 82 217 0.0 0.0 0.00 0.00 0.00 93 1013.2
20260906043018 82 265 0.0 0.0 0.00 0.00 0.00 93 1013.2
20260906042516 82 290 0.0 0.0 0.00 0.00 0.00 93 1013.1
20260906042011 82 295 0.0 0.0 0.00 0.00 0.00 93 1013.2
20260906041508 82 277 0.0 0.0 0.00 0.00 0.00 93 1013.2
20260906041007 82 222 0.0 0.0 0.00 0.00 0.00 93 1013.3
20260906040502 82 222 0.0 0.0 0.00 0.00 0.00 93 1013.1
20260906035957 82 336 0.0 0.0 0.00 0.00 0.00 93 1013.3
20260906035453 82 246 0.0 0.0 0.00 0.00 0.00 93 1013.3
20260906034949 82 247 0.0 0.0 0.00 0.00 0.00 92 1013.1
20260906034449 82 189 0.0 0.0 0.00 0.00 0.00 92 1013.2
20260906033944 82 146 0.0 0.0 0.00 0.00 0.00 92 1013.0
20260906033444 83 141 0.0 0.0 0.00 0.00 0.00 92 1012.9
20260906032935 83 122 0.0 0.0 0.00 0.00 0.00 91 1013.0
20260906032431 83 118 0.0 0.0 0.00 0.00 0.00 91 1013.1
20260906031930 83 280 0.0 0.0 0.00 0.00 0.00 91 1013.1
20260906031426 83 35 0.0 0.0 0.00 0.00 0.00 91 1013.3
20260906030921 83 200 0.0 1.0 0.00 0.00 0.00 90 1013.0
20260906030415 83 109 0.0 3.0 0.00 0.00 0.00 90 1013.0
20260906025910 83 7 0.0 2.0 0.00 0.00 0.00 90 1012.9
20260906025404 83 138 0.0 2.0 0.00 0.00 0.00 90 1012.9
20260906024903 83 34 1.0 2.0 0.00 0.00 0.00 90 1012.7
20260906024402 83 50 2.0 3.0 0.00 0.00 0.00 90 1012.8
20260906023858 83 119 1.0 2.0 0.00 0.00 0.00 90 1012.7
20260906023355 83 53 2.0 2.0 0.00 0.00 0.00 91 1012.7
20260906022854 83 87 0.0 0.0 0.00 0.00 0.00 91 1012.8
20260906022349 83 150 0.0 0.0 0.00 0.00 0.00 91 1012.7
20260906021846 83 93 1.0 4.0 0.00 0.00 0.00 91 1012.1
20260906021345 83 59 0.0 0.0 0.00 0.00 0.00 91 1012.3
20260906020839 83 164 0.0 0.0 0.00 0.00 0.00 91 1012.7
20260906020338 83 164 0.0 0.0 0.00 0.00 0.00 91 1012.9
20260906015833 83 247 0.0 0.0 0.00 0.00 0.00 91 1012.3
20260906015332 83 274 0.0 0.0 0.00 0.00 0.00 91 1012.0
20260906014826 83 268 0.0 0.0 0.00 0.00 0.00 91 1012.0
20260906014321 83 78 0.0 2.0 0.00 0.00 0.00 90 1011.6
20260906013818 83 62 3.0 6.0 0.00 0.00 0.00 90 1011.3
20260906013314 83 125 0.0 3.0 0.00 0.00 0.00 90 1011.4
20260906012809 83 134 0.0 0.0 0.00 0.00 0.00 89 1011.7
20260906012309 83 321 0.0 0.0 0.00 0.00 0.00 89 1011.9
20260906011804 83 324 0.0 0.0 0.00 0.00 0.00 89 1012.1
20260906011304 83 126 0.0 3.0 0.00 0.00 0.00 88 1012.4
20260906010800 83 105 1.0 4.0 0.00 0.00 0.00 88 1012.4
20260906010256 83 319 1.0 3.0 0.00 0.00 0.00 88 1012.5
20260906005751 83 95 0.0 1.0 0.00 0.00 0.00 88 1012.6
20260906005249 83 124 0.0 2.0 0.00 0.00 0.00 88 1012.5
20260906004743 84 72 2.0 3.0 0.00 0.00 0.00 87 1012.4
20260906004238 84 72 2.0 6.0 0.00 0.00 0.00 87 1012.6
20260906003733 84 79 0.0 1.0 0.00 0.00 0.00 87 1012.7
20260906003229 84 76 2.0 6.0 0.00 0.00 0.00 87 1012.8
20260906002728 84 131 0.0 2.0 0.00 0.00 0.00 87 1012.6
20260906002223 84 110 1.0 4.0 0.00 0.00 0.00 87 1012.7
20260906001719 84 46 1.0 1.0 0.00 0.00 0.00 87 1013.0
20260906001219 84 149 0.0 0.0 0.00 0.00 0.00 87 1013.2
20260906000714 84 42 1.0 2.0 0.00 0.00 0.00 87 1013.0
20260906000211 84 58 3.0 4.0 0.00 0.00 0.00 86 1012.9
20260905235709 84 98 2.0 3.0 0.00 0.00 0.00 86 1013.0
20260905235204 84 104 2.0 4.0 0.00 0.00 0.00 86 1012.6
20260905234659 84 109 2.0 3.0 0.00 0.00 0.00 86 1013.0
20260905234154 84 39 1.0 2.0 0.00 0.00 0.00 86 1012.9
20260905233649 84 87 2.0 4.0 0.00 0.00 0.00 86 1013.2
20260905233148 84 117 1.0 2.0 0.00 0.00 0.00 86 1013.1
20260905232644 84 95 0.0 4.0 0.00 0.00 0.00 86 1012.7
20260905232140 84 33 2.0 4.0 0.00 0.00 0.00 86 1012.9
20260905231634 84 65 2.0 2.0 0.00 0.00 0.00 86 1012.9
20260905231131 85 75 0.0 1.0 0.00 0.00 0.00 86 1012.8
20260905230627 85 78 2.0 6.0 0.00 0.00 0.00 86 1012.7
20260905230125 85 93 1.0 4.0 0.00 0.00 0.00 85 1012.7
20260905225618 85 63 1.0 3.0 0.00 0.00 0.00 85 1012.7
20260905225113 86 95 1.0 2.0 0.00 0.00 0.00 84 1012.6
20260905224608 86 92 4.0 7.0 0.00 0.00 0.00 84 1012.7
20260905224107 86 122 2.0 2.0 0.00 0.00 0.00 84 1012.9
20260905223604 86 98 3.0 7.0 0.00 0.00 0.00 83 1012.7
20260905223100 87 50 5.0 7.0 0.00 0.00 0.00 83 1012.4
20260905222600 87 51 1.0 3.0 0.00 0.00 0.00 82 1012.5
20260905222055 87 92 1.0 6.0 0.00 0.00 0.00 82 1012.6
20260905221551 87 122 2.0 4.0 0.00 0.00 0.00 80 1012.5
20260905221047 87 150 2.0 4.0 0.00 0.00 0.00 80 1012.5
20260905220543 87 77 2.0 4.0 0.00 0.00 0.00 80 1012.5
20260905220039 88 49 2.0 3.0 0.00 0.00 0.00 80 1012.5
20260905215538 87 88 1.0 2.0 0.00 0.00 0.00 81 1012.3
20260905215034 88 72 4.0 8.0 0.00 0.00 0.00 80 1012.5
20260905214530 88 52 1.0 6.0 0.00 0.00 0.00 80 1012.3
20260905214025 88 138 1.0 4.0 0.00 0.00 0.00 80 1012.4
20260905213520 87 337 0.0 7.0 0.00 0.00 0.00 80 1012.4
20260905213016 87 103 1.0 7.0 0.00 0.00 0.00 80 1012.4
20260905212510 88 101 2.0 7.0 0.00 0.00 0.00 79 1012.5
20260905212010 88 2 1.0 4.0 0.00 0.00 0.00 80 1012.4
20260905211505 87 154 2.0 8.0 0.00 0.00 0.00 80 1012.3
20260905211001 87 71 2.0 7.0 0.00 0.00 0.00 80 1012.3
20260905210456 88 87 3.0 7.0 0.00 0.00 0.00 80 1012.2
20260905205955 88 49 2.0 3.0 0.00 0.00 0.00 80 1012.4
20260905205450 89 103 2.0 3.0 0.00 0.00 0.00 78 1012.2
20260905204949 89 313 2.0 3.0 0.00 0.00 0.00 78 1012.2
20260905204440 89 58 2.0 3.0 0.00 0.00 0.00 78 1012.0
20260905203939 89 98 2.0 6.0 0.00 0.00 0.00 78 1012.0
20260905203434 89 327 3.0 7.0 0.00 0.00 0.00 78 1012.0
20260905202929 88 72 0.0 2.0 0.00 0.00 0.00 79 1011.9
20260905202425 89 123 5.0 7.0 0.00 0.00 0.00 79 1012.0
20260905201920 89 10 0.0 3.0 0.00 0.00 0.00 78 1011.8
20260905201416 89 62 1.0 4.0 0.00 0.00 0.00 77 1011.8
20260905200915 89 53 1.0 8.0 0.00 0.00 0.00 78 1012.0
20260905200411 90 177 2.0 2.0 0.00 0.00 0.00 77 1012.0
20260905195908 89 40 1.0 4.0 0.00 0.00 0.00 78 1012.0
20260905195404 90 123 1.0 6.0 0.00 0.00 0.00 77 1012.0
20260905194900 90 120 4.0 7.0 0.00 0.00 0.00 76 1012.2
20260905194359 89 85 1.0 8.0 0.00 0.00 0.00 78 1012.1
20260905193854 89 120 2.0 3.0 0.00 0.00 0.00 78 1012.2
20260905193349 90 102 2.0 6.0 0.00 0.00 0.00 77 1012.2
20260905192845 90 212 2.0 4.0 0.00 0.00 0.00 76 1012.4
20260905192340 90 90 1.0 3.0 0.00 0.00 0.00 76 1012.6
20260905191839 90 320 1.0 6.0 0.00 0.00 0.00 76 1012.4
20260905191338 91 119 2.0 6.0 0.00 0.00 0.00 75 1012.7
20260905190837 90 332 2.0 3.0 0.00 0.00 0.00 75 1012.8
20260905190331 91 74 5.0 7.0 0.00 0.00 0.00 73 1012.7
20260905185830 92 140 2.0 4.0 0.00 0.00 0.00 73 1012.9
20260905185325 92 61 0.0 2.0 0.00 0.00 0.00 72 1013.1
20260905184824 91 67 0.0 6.0 0.00 0.00 0.00 74 1013.2
20260905184323 91 83 2.0 6.0 0.00 0.00 0.00 74 1013.4
20260905183821 92 153 0.0 4.0 0.00 0.00 0.00 73 1013.2
20260905183317 92 8 1.0 2.0 0.00 0.00 0.00 73 1013.3
20260905182812 92 59 1.0 4.0 0.00 0.00 0.00 73 1013.5
20260905182311 91 84 4.0 6.0 0.00 0.00 0.00 74 1013.5
20260905181807 91 337 0.0 4.0 0.00 0.00 0.00 74 1013.6
20260905181306 92 40 0.0 2.0 0.00 0.00 0.00 73 1013.6
20260905180801 91 82 2.0 3.0 0.00 0.00 0.00 74 1013.6
20260905180255 93 98 2.0 3.0 0.00 0.00 0.00 71 1013.6
20260905175750 92 322 0.0 2.0 0.00 0.00 0.00 74 1013.6
20260905175245 91 106 0.0 2.0 0.00 0.00 0.00 74 1013.6
20260905174740 92 53 2.0 4.0 0.00 0.00 0.00 73 1013.7
20260905174235 92 104 4.0 8.0 0.00 0.00 0.00 74 1013.8
20260905173731 92 252 0.0 1.0 0.00 0.00 0.00 73 1013.9
20260905173227 91 103 6.0 8.0 0.00 0.00 0.00 74 1014.2
20260905172727 90 44 1.0 6.0 0.00 0.00 0.00 75 1014.3
20260905172220 89 67 2.0 7.0 0.00 0.00 0.00 77 1014.2
20260905171716 92 58 3.0 4.0 0.00 0.00 0.00 74 1014.3
20260905171212 93 307 0.0 1.0 0.00 0.00 0.00 70 1014.2
20260905170710 92 111 2.0 7.0 0.00 0.00 0.00 70 1014.1
20260905170209 91 77 2.0 6.0 0.00 0.00 0.00 73 1014.4
20260905165709 92 92 2.0 2.0 0.00 0.00 0.00 73 1014.4
20260905165204 91 298 0.0 2.0 0.00 0.00 0.00 74 1014.6
20260905164654 92 103 1.0 4.0 0.00 0.00 0.00 70 1014.5
20260905164153 91 42 2.0 3.0 0.00 0.00 0.00 67 1014.7
20260905163649 93 61 1.0 4.0 0.00 0.00 0.00 64 1014.9
20260905163146 94 87 1.0 2.0 0.00 0.00 0.00 64 1014.7
20260905162641 93 267 0.0 1.0 0.00 0.00 0.00 66 1014.9
20260905162140 92 327 0.0 0.0 0.00 0.00 0.00 67 1015.1
20260905161635 92 125 0.0 3.0 0.00 0.00 0.00 68 1015.1
20260905161133 93 43 1.0 1.0 0.00 0.00 0.00 67 1015.4
20260905160633 91 208 0.0 0.0 0.00 0.00 0.00 69 1015.4
20260905160126 90 322 0.0 2.0 0.00 0.00 0.00 72 1015.5
20260905155621 92 167 0.0 0.0 0.00 0.00 0.00 69 1015.6
20260905155120 92 138 0.0 0.0 0.00 0.00 0.00 70 1015.7
20260905154620 91 93 0.0 0.0 0.00 0.00 0.00 71 1015.7
20260905154115 89 1 2.0 3.0 0.00 0.00 0.00 72 1015.6
20260905153611 90 188 0.0 1.0 0.00 0.00 0.00 71 1015.6
20260905153106 91 345 0.0 2.0 0.00 0.00 0.00 70 1015.6
20260905152601 92 246 0.0 1.0 0.00 0.00 0.00 69 1015.7
20260905152055 91 150 0.0 3.0 0.00 0.00 0.00 70 1015.8
20260905151551 90 47 2.0 4.0 0.00 0.00 0.00 72 1015.6
20260905151046 91 16 0.0 0.0 0.00 0.00 0.00 72 1015.8
20260905150541 90 215 0.0 1.0 0.00 0.00 0.00 74 1015.6
20260905150039 90 245 0.0 0.0 0.00 0.00 0.00 75 1015.7
20260905145532 88 144 1.0 2.0 0.00 0.00 0.00 77 1015.6
20260905145032 88 145 0.0 1.0 0.00 0.00 0.00 77 1015.8
20260905144522 88 66 1.0 1.0 0.00 0.00 0.00 76 1015.7
20260905144021 88 294 0.0 0.0 0.00 0.00 0.00 75 1015.7
20260905143520 87 77 0.0 1.0 0.00 0.00 0.00 79 1015.9
20260905143015 87 220 0.0 4.0 0.00 0.00 0.00 81 1015.8
20260905142514 86 28 0.0 3.0 0.00 0.00 0.00 80 1015.9
20260905142009 85 139 2.0 6.0 0.00 0.00 0.00 82 1015.8
20260905141508 86 204 0.0 0.0 0.00 0.00 0.00 81 1015.7
20260905141006 86 70 0.0 3.0 0.00 0.00 0.00 82 1015.6
20260905140500 85 279 0.0 0.0 0.00 0.00 0.00 83 1015.6
20260905135958 85 39 0.0 0.0 0.00 0.00 0.00 85 1015.7
20260905135455 84 150 0.0 1.0 0.00 0.00 0.00 87 1015.8
20260905134950 84 78 1.0 1.0 0.00 0.00 0.00 87 1015.9
20260905134449 84 90 0.0 2.0 0.00 0.00 0.00 87 1015.9
20260905133948 84 274 0.0 1.0 0.00 0.00 0.00 88 1015.7
20260905133444 83 188 0.0 0.0 0.00 0.00 0.00 88 1016.0
20260905132943 83 342 0.0 1.0 0.00 0.00 0.00 88 1015.8
20260905132438 83 343 1.0 1.0 0.00 0.00 0.00 89 1016.0
20260905131933 83 49 0.0 1.0 0.00 0.00 0.00 90 1016.1
20260905131430 82 205 0.0 0.0 0.00 0.00 0.00 91 1016.1
20260905130929 82 229 0.0 0.0 0.00 0.00 0.00 92 1016.1
20260905130423 82 247 0.0 1.0 0.00 0.00 0.00 93 1016.0
20260905125923 81 181 0.0 1.0 0.00 0.00 0.00 94 1016.0
20260905125418 81 180 0.0 1.0 0.00 0.00 0.00 95 1016.0
20260905124914 81 58 0.0 0.0 0.00 0.00 0.00 95 1016.0
20260905124410 80 68 0.0 2.0 0.00 0.00 0.00 96 1016.1
20260905123910 80 63 0.0 0.0 0.00 0.00 0.00 97 1015.8
20260905123407 80 49 2.0 3.0 0.00 0.00 0.00 97 1015.8
20260905122902 79 310 0.0 0.0 0.00 0.00 0.00 98 1016.0
20260905122401 79 206 0.0 0.0 0.00 0.00 0.00 99 1016.0
20260905121857 79 187 0.0 0.0 0.00 0.00 0.00 99 1015.8
20260905121353 79 173 0.0 0.0 0.00 0.00 0.00 99 1015.9
20260905120851 79 173 0.0 1.0 0.00 0.00 0.00 99 1015.8
20260905120346 78 175 0.0 1.0 0.00 0.00 0.00 99 1016.0
20260905115841 78 218 0.0 0.0 0.00 0.00 0.00 99 1015.8